TimeEST,TemperatureF,Dew PointF,Humidity,Sea Level PressureIn,VisibilityMPH,Wind Direction,Wind SpeedMPH,Gust SpeedMPH,PrecipitationIn,Events,Conditions,WindDirDegrees,DateUTC
12:26 AM,60.8,59.0,94,30.11,9.0,WSW,10.4,-,0.00,Rain,Light Rain,250,2013-11-23 05:26:00
12:53 AM,61.0,57.9,90,30.12,9.0,WSW,9.2,-,0.00,,Overcast,240,2013-11-23 05:53:00
1:05 AM,60.8,57.2,88,30.10,9.0,WSW,6.9,-,0.00,Rain,Light Rain,250,2013-11-23 06:05:00
1:14 AM,60.8,57.2,88,30.11,10.0,West,6.9,-,0.00,,Overcast,260,2013-11-23 06:14:00
1:53 AM,60.1,57.9,93,30.12,9.0,WSW,9.2,-,0.00,,Overcast,250,2013-11-23 06:53:00
2:53 AM,60.1,57.9,93,30.13,7.0,West,4.6,-,0.00,Rain,Light Rain,280,2013-11-23 07:53:00
3:43 AM,60.8,57.2,88,30.10,7.0,West,5.8,-,0.00,,Overcast,260,2013-11-23 08:43:00
3:53 AM,60.1,57.9,93,30.11,7.0,West,4.6,-,0.00,,Overcast,270,2013-11-23 08:53:00
4:53 AM,57.9,57.0,97,30.10,5.0,SW,5.8,-,0.00,,Mostly Cloudy,230,2013-11-23 09:53:00
5:53 AM,57.9,57.0,97,30.10,3.0,West,3.5,-,N/A,,Mostly Cloudy,260,2013-11-23 10:53:00
6:18 AM,57.2,57.2,100,30.08,1.8,WSW,3.5,-,N/A,,Overcast,250,2013-11-23 11:18:00
6:34 AM,57.2,57.2,100,30.09,2.5,West,3.5,-,N/A,,Overcast,260,2013-11-23 11:34:00
6:44 AM,57.2,57.2,100,30.09,4.0,Calm,Calm,-,N/A,,Overcast,0,2013-11-23 11:44:00
6:53 AM,57.9,57.0,97,30.11,4.0,Calm,Calm,-,N/A,,Overcast,0,2013-11-23 11:53:00
7:25 AM,57.2,57.2,100,30.10,2.5,West,3.5,-,N/A,,Overcast,280,2013-11-23 12:25:00
7:32 AM,57.2,57.2,100,30.11,2.5,WNW,3.5,-,N/A,,Overcast,300,2013-11-23 12:32:00
7:42 AM,57.2,57.2,100,30.10,2.5,WNW,3.5,-,N/A,,Overcast,300,2013-11-23 12:42:00
7:53 AM,57.9,57.0,97,30.13,2.5,WNW,3.5,-,N/A,,Overcast,300,2013-11-23 12:53:00
8:01 AM,57.2,57.2,100,30.11,2.0,NW,3.5,-,N/A,,Overcast,320,2013-11-23 13:01:00
8:31 AM,59.0,57.2,94,30.12,3.0,North,3.5,-,N/A,,Overcast,360,2013-11-23 13:31:00
8:53 AM,59.0,57.0,93,30.15,5.0,NNE,5.8,-,N/A,,Overcast,30,2013-11-23 13:53:00
9:15 AM,59.0,55.4,88,30.13,9.0,NNE,11.5,-,N/A,,Overcast,20,2013-11-23 14:15:00
9:53 AM,60.1,53.1,78,30.16,10.0,NNE,11.5,-,N/A,,Overcast,20,2013-11-23 14:53:00
10:53 AM,60.1,50.0,69,30.15,10.0,NNE,10.4,-,N/A,,Overcast,30,2013-11-23 15:53:00
11:53 AM,60.1,48.9,67,30.12,10.0,NNE,10.4,-,0.00,Rain,Light Rain,30,2013-11-23 16:53:00
12:53 PM,59.0,48.0,67,30.12,10.0,North,6.9,-,0.00,Rain,Light Rain,350,2013-11-23 17:53:00
1:53 PM,60.1,46.0,60,30.09,10.0,North,9.2,-,0.00,,Overcast,10,2013-11-23 18:53:00
2:53 PM,60.1,45.0,57,30.08,10.0,North,6.9,-,N/A,,Overcast,360,2013-11-23 19:53:00
3:53 PM,59.0,45.0,60,30.09,10.0,North,3.5,-,N/A,,Overcast,350,2013-11-23 20:53:00
4:53 PM,57.9,45.0,62,30.10,10.0,NNW,3.5,-,N/A,,Partly Cloudy,340,2013-11-23 21:53:00
5:53 PM,57.0,39.9,53,30.11,10.0,North,3.5,-,N/A,,Overcast,350,2013-11-23 22:53:00
6:53 PM,55.0,28.9,37,30.14,10.0,North,9.2,-,N/A,,Partly Cloudy,350,2013-11-23 23:53:00
7:53 PM,52.0,27.0,38,30.16,10.0,North,6.9,-,N/A,,Clear,350,2013-11-24 00:53:00
8:53 PM,50.0,26.1,39,30.17,10.0,North,3.5,-,N/A,,Clear,360,2013-11-24 01:53:00
9:53 PM,48.0,23.0,37,30.18,10.0,North,3.5,-,N/A,,Clear,360,2013-11-24 02:53:00
10:53 PM,46.0,19.0,34,30.20,10.0,North,9.2,-,N/A,,Clear,360,2013-11-24 03:53:00
11:53 PM,44.1,16.0,32,30.23,10.0,North,13.8,-,N/A,,Clear,360,2013-11-24 04:53:00